Meteo Giornale » Osservazioni meteo Francia » Dinard
ore: 21:00 - Osservazioni Meteo Dinard
Lat. 48° 35' N Lon. 2° 4' W Alt. 65 metri s.l.m.
17 °C
Sereno
Temp. 24 Ore
15 °C
22 °C
Nord-Ovest
16.7 Km/h
Dew point 12 °C
Umidità 72 %
Visibilità 10 Km
Il sole sorge alle ore 07:24
Il sole tramonta alle ore 20:52
| Data e Ora | Cielo e Fenomeni | T °C | DP °C | Um. % | Pres. hPa | Vis. km | Vento km/h | |
|---|---|---|---|---|---|---|---|---|
| Oggi h: 21:00 | Sereno | 17 | 12 | 72 | 1021 | 10 | NO 16.7 | |
| Oggi h: 20:30 | Sereno | 18 | 12 | 67 | 1021 | 10 | NO 18.5 | |
| Oggi h: 20:00 | Sereno | 18 | 12 | 67 | 1021 | 10 | NO 22.2 | |
| Oggi h: 19:30 | Sereno | 19 | 13 | 68 | 1020 | 10 | NO 25.9 | |
| Oggi h: 19:00 | Sereno | 19 | 13 | 68 | 1020 | 10 | NO 25.9 | |
| Oggi h: 18:30 | Sereno | 20 | 14 | 68 | 1020 | 10 | NO 27.8 | |
| Oggi h: 18:00 | Sereno | 20 | 14 | 68 | 1020 | 10 | NO 25.9 | |
| Oggi h: 17:30 | Sereno | 20 | 14 | 68 | 1020 | 10 | NO 25.9 | |
| Oggi h: 17:00 | Sereno | 20 | 14 | 68 | 1020 | 10 | NO 27.8 | |
| Oggi h: 16:30 | Molto Nuvoloso | 20 | 14 | 68 | 1020 | 10 | NO 25.9 | |
| Oggi h: 16:00 | Molto Nuvoloso | 21 | 14 | 64 | 1019 | 10 | NO 27.8 | |
| Oggi h: 15:30 | Molto Nuvoloso | 22 | 15 | 64 | 1019 | 10 | NO 25.9 | |
| Oggi h: 15:00 | Nuvoloso | 21 | 15 | 68 | 1019 | 10 | NO 25.9 | |
| Oggi h: 14:30 | Molto Nuvoloso | 22 | 16 | 68 | 1019 | 10 | NO 24 | |
| Oggi h: 14:00 | Molto Nuvoloso | 21 | 14 | 64 | 1018 | 10 | O/NO 20.3 | |
| Oggi h: 13:30 | Molto Nuvoloso | 21 | 14 | 64 | 1018 | 10 | O/NO 20.3 | |
| Oggi h: 13:00 | Molto Nuvoloso | 21 | 14 | 64 | 1018 | 10 | O/NO 25.9 | |
| Oggi h: 12:30 | Molto Nuvoloso | 20 | 14 | 68 | 1018 | 10 | O/NO 25.9 | |
| Oggi h: 12:00 | Molto Nuvoloso | 19 | 14 | 72 | 1017 | 10 | O 27.8 | |
| Oggi h: 11:30 | Molto Nuvoloso | 20 | 15 | 72 | 1017 | 10 | O 24 | |
| Oggi h: 11:00 | Coperto | 18 | 15 | 82 | 1017 | 10 | O 24 | |
| Oggi h: 10:30 | Molto Nuvoloso | 19 | 15 | 77 | 1016 | 10 | O 22.2 | |
| Oggi h: 10:00 | Coperto | 18 | 14 | 77 | 1016 | 10 | O/SO 22.2 | |
| Oggi h: 09:30 | Molto Nuvoloso | 18 | 14 | 77 | 1015 | 10 | O/SO 20.3 | |
| Oggi h: 09:00 | Molto Nuvoloso | 17 | 14 | 82 | 1015 | 10 | O/SO 18.5 | |
| Oggi h: 08:30 | Poco Nuvoloso | 16 | 14 | 87 | 1015 | 10 | O/SO 20.3 | |
| Oggi h: 08:00 | Molto Nuvoloso | 16 | 14 | 87 | 1014 | 10 | SO 18.5 | |
| Oggi h: 07:30 | Poco Nuvoloso | 15 | 14 | 93 | 1014 | 10 | SO 16.7 | |
| Oggi h: 07:00 | Sereno | 15 | 14 | 93 | 1014 | 10 | SO 16.7 | |
| Oggi h: 06:30 | Poco Nuvoloso | 16 | 14 | 87 | 1013 | 10 | SO 18.5 | |
| Oggi h: 06:00 | Molto Nuvoloso | 16 | 14 | 87 | 1013 | 10 | O/SO 22.2 | |
| Oggi h: 05:30 | Molto Nuvoloso | 16 | 14 | 87 | 1013 | 10 | SO 18.5 | |
| Oggi h: 05:00 | Sereno | 16 | 14 | 87 | 1013 | 10 | SO 20.3 | |
| Oggi h: 04:30 | Molto Nuvoloso | 16 | 14 | 87 | 1013 | 10 | SO 22.2 | |
| Oggi h: 04:00 | Sereno | 16 | 14 | 87 | 1012 | 10 | SO 22.2 | |
| Oggi h: 03:30 | Sereno | 16 | 14 | 87 | 1012 | 10 | SO 20.3 | |
| Oggi h: 03:00 | Molto Nuvoloso | 16 | 14 | 87 | 1012 | 10 | SO 18.5 | |
| Oggi h: 02:30 | Molto Nuvoloso | 17 | 14 | 82 | 1012 | 10 | SO 22.2 | |
| Oggi h: 02:00 | Poco Nuvoloso | 16 | 14 | 87 | 1012 | 10 | SO 20.3 | |
| Oggi h: 01:30 | Molto Nuvoloso | 17 | 15 | 88 | 1012 | 10 | S/SO 18.5 | |
| Oggi h: 01:00 | Poco Nuvoloso | 17 | 14 | 82 | 1012 | 10 | SO 22.2 | |
| Oggi h: 00:30 | Sereno | 16 | 14 | 87 | 1012 | 10 | S/SO 20.3 | |
| Oggi h: 00:00 | Poco Nuvoloso | 16 | 14 | 87 | 1012 | 10 | S/SO 18.5 | |
| Ieri h: 23:30 | Nuvoloso | 17 | 14 | 82 | 1012 | 10 | S/SO 22.2 | |
| Ieri h: 23:00 | Sereno | 17 | 14 | 82 | 1012 | 10 | S/SO 22.2 | |
| Ieri h: 22:30 | Nuvoloso | 17 | 14 | 82 | 1012 | 10 | SO 24 | |
| Ieri h: 22:00 | Sereno | 18 | 15 | 82 | 1012 | 10 | SO 22.2 | |



